This is the latest recevied weather packets stored in our database for station/object KD7JB. If no packets are shown the sender has not sent any weather packets the latest 10 day(s).
| Time | Temp. | Humidity | Pressure | Rain* | Wind** | Luminosity | Snow |
|---|---|---|---|---|---|---|---|
| 1777760824 | 20° C | 39% | 1178.4 hPa | 0 mm | - | 615 W/m² | - |
| 1777760520 | 19.44° C | 39% | 1178.7 hPa | 0 mm | - | 598 W/m² | - |
| 1777760216 | 18.89° C | 40% | 1178.7 hPa | 0 mm | - | 599 W/m² | - |
| 1777759913 | 19.44° C | 40% | 1178.8 hPa | 0 mm | - | 609 W/m² | - |
| 1777759609 | 19.44° C | 41% | 1178.7 hPa | 0 mm | - | 619 W/m² | - |
| 1777759305 | 18.89° C | 42% | 1178.8 hPa | 0 mm | - | 668 W/m² | - |
| 1777759003 | 18.89° C | 41% | 1178.8 hPa | 0 mm | - | 253 W/m² | - |
| 1777758699 | 20° C | 38% | 1178.8 hPa | 0 mm | - | 386 W/m² | - |
| 1777758397 | 20° C | 41% | 1178.8 hPa | 0 mm | - | 652 W/m² | - |
| 1777758095 | 19.44° C | 40% | 1178.9 hPa | 0 mm | - | 662 W/m² | - |
| 1777757791 | 18.89° C | 41% | 1178.9 hPa | 0 mm | - | 683 W/m² | - |
| 1777757488 | 20° C | 40% | 1179 hPa | 0 mm | - | 684 W/m² | - |
| 1777757187 | 19.44° C | 41% | 1179 hPa | 0 mm | - | 650 W/m² | - |
| 1777756885 | 19.44° C | 40% | 1179.2 hPa | 0 mm | - | 627 W/m² | - |
| 1777756580 | 19.44° C | 40% | 1179.1 hPa | 0 mm | - | 683 W/m² | - |
| 1777756278 | 19.44° C | 39% | 1179.1 hPa | 0 mm | - | 704 W/m² | - |
| 1777755975 | 18.89° C | 39% | 1179.2 hPa | 0 mm | - | 724 W/m² | - |
| 1777755672 | 18.89° C | 41% | 1179.1 hPa | 0 mm | - | 708 W/m² | - |
| 1777755368 | 18.33° C | 41% | 1179.1 hPa | 0 mm | - | 691 W/m² | - |
| 1777755066 | 18.89° C | 40% | 1179.2 hPa | 0 mm | - | 710 W/m² | - |
| 1777754762 | 18.89° C | 41% | 1179.1 hPa | 0 mm | - | 711 W/m² | - |
| 1777754460 | 18.33° C | 42% | 1179.1 hPa | 0 mm | - | 729 W/m² | - |
| 1777754156 | 18.89° C | 42% | 1179.3 hPa | 0 mm | - | 682 W/m² | - |
| 1777753854 | 18.89° C | 41% | 1179.2 hPa | 0 mm | - | 688 W/m² | - |
| 1777753550 | 18.33° C | 40% | 1179.2 hPa | 0 mm | - | 689 W/m² | - |
* Rain latest hour (hover to see other rain measurements)
** Current wind speed in m/s (hover to see current wind gust speed)